Location: Izdebno
(52.6670°N, 16.2170°E)
Time: 07:17:41
(UTC+02:00)

Vanguard 2 Rocket - Pass Details

Date: 01 March 2024
Orbit: 555 x 3307 km, 32.9° (Epoch: 24 April)

Event Time Altitude Azimuth Distance (km) Brightness Sun altitude
Rises 16:06:09 0° 249° (WSW) 4,493 12.5 11.7°
Reaches altitude 10° 16:09:19 10° 237° (WSW) 3,875 13.3 11.3°
Maximum altitude 16:17:49 27° 185° (S) 3,546 10.4 10.2°
Drops below altitude 10° 16:30:09 10° 137° (SE) 5,722 10.8 8.5°
Sets 16:36:14 0° 127° (SE) 7,048 11.1 7.6°
